Location: Altk�slarn
(49.8270°N, 11.9257°E)
Time: 10:22:16
(UTC+00:00)

Daily predictions for brighter satellites

Satellite Brightness Start Highest point End
(mag) Time Altitude Azimuth Time Altitude Azimuth Time Altitude Azimuth
Helios 1A Rocket 3.9 15:59:46 10° S 16:03:50 55° WSW 16:07:57 10° NNW
YAOGAN 6 4.3 16:04:50 10° E 16:06:40 14° ENE 16:08:31 10° NNE
Envisat 3.7 16:02:57 10° ESE 16:07:21 31° ENE 16:11:46 10° N
IRS-1C Rocket 4.1 16:03:18 10° SSE 16:08:33 70° ENE 16:13:50 10° NNW
H-2A R/B 3.1 16:06:07 10° SE 16:09:46 42° ENE 16:13:25 10° N
Cosmos 1943 Rocket 3.6 16:05:14 10° WSW 16:10:24 36° NW 16:15:37 10° NNE
Cosmos 2151 4.2 16:07:42 10° NNW 16:11:50 47° W 16:15:55 10° SSW
Cosmos 2263 Rocket 4.1 16:10:51 10° N 16:12:29 11° NNE 16:14:08 10° NE
Meteor 2-10 Rocket 3.5 16:07:35 10° S 16:12:30 64° E 16:17:31 10° NNE
PSLV R/B 4.0 16:11:19 10° NNE 16:15:33 67° ESE 16:19:45 10° S
Cosmos 1437 2.5 16:12:30 10° N 16:15:36 79° E 16:18:40 10° SSE
Meteor 2-3 Rocket 3.8 16:13:33 10° N 16:19:23 70° ENE 16:25:08 10° SSE
Genesis I 4.4 16:16:44 10° S 16:20:06 26° ESE 16:23:19 11° ENE
Feng Yun 1-1 Rocket 4.2 16:14:34 10° SSE 16:20:11 78° ENE 16:25:42 10° NNW
CZ-4B R/B 4.4 16:15:24 10° S 16:20:31 47° W 16:25:38 10° NNW
YAOGAN 1 3.9 16:17:55 10° ESE 16:20:58 19° ENE 16:24:03 10° NNE
Okean-O 2.9 16:19:48 10° SE 16:24:04 47° ENE 16:28:20 10° N
Cosmos 2221 2.7 16:22:13 10° S 16:26:23 50° E 16:30:36 10° NNE
TSX-5 4.1 16:22:47 10° SSW 16:26:38 61° ESE 16:31:38 10° NE
SeaSat 1 2.4 16:23:46 10° SE 16:28:40 71° ENE 16:33:36 10° NNW
Cosmos 1697 Rocket 4.4 16:26:54 10° ESE 16:29:06 12° E 16:30:18 12° E
CZ-3B R/B 2.2 16:27:20 10° WSW 16:29:22 69° NNW 16:31:53 14° ENE
Cosmos 1842 Rocket 3.6 16:26:01 10° S 16:30:30 76° E 16:35:00 10° NNE
ATLAS 5 CENTAUR R/B 2.4 16:28:15 10° NW 16:33:46 62° NE 16:40:07 10° ESE
Geosat 4.3 16:29:01 10° NE 16:33:53 47° ESE 16:38:43 10° S
Cosmos 2233 Rocket 4.0 16:29:49 10° N 16:36:12 80° E 16:42:31 10° SSE
AQUARIUS 4.3 16:39:39 10° S 16:44:09 78° WSW 16:48:41 10° NNW
ASTEX 1 4.1 16:41:23 10° N 16:46:19 58° W 16:51:13 10° SSW
Cosmos 1867 3.6 16:41:42 10° SSW 16:47:07 71° SE 16:52:08 12° NE
Cosmos 1743 Rocket 4.1 16:44:15 10° NNW 16:48:34 63° W 16:52:52 10° S
Cosmos 1805 Rocket 3.6 16:44:50 10° N 16:49:08 56° ENE 16:53:25 10° SSE
CENTAUR R/B 4.1 16:43:44 10° WNW 16:49:39 29° N 16:55:42 12° NE
H-2A R/B 4.1 16:50:34 11° NE 16:50:34 11° NE 16:51:15 10° NNE
Ariane Rocket 4.2 16:48:09 16° E 16:50:29 22° ENE 16:54:17 10° N
Cosmos 1340 Rocket 4.5 16:51:48 10° SW 16:55:32 35° WNW 16:59:18 10° N
Cosmos 1464 Rocket 4.1 16:50:20 10° N 16:56:20 49° ENE 17:02:14 10° SSE
GEOS 3 Rocket 3.6 16:53:10 12° NE 16:58:03 88° SE 17:03:20 10° SW
Cosmos 1825 4.3 16:55:23 10° NNW 16:58:42 29° W 17:02:01 10° SSW
NOAA 12 4.1 16:53:35 10° SSE 16:58:55 88° WSW 17:04:18 10° NNW
CZ-4 R/B 1.6 16:56:14 10° SE 17:00:16 49° ENE 17:04:15 10° N
Cosmos 773 Rocket 3.9 16:56:43 10° S 17:01:49 66° ESE 17:07:00 10° NNE
Cosmos 1072 Rocket 4.4 16:58:31 10° N 17:04:34 60° ENE 17:10:39 10° SSE
Cosmos 1869 3.2 17:00:50 10° S 17:04:43 59° E 17:08:37 10° NNE
ATLAS 3B R/B 4.1 17:00:06 10° WNW 17:05:30 25° N 17:10:02 13° NE
SMAP 4.3 17:02:13 10° S 17:06:41 45° W 17:11:11 10° NNW
Cosmos 2056 Rocket 4.5 17:02:46 10° N 17:06:58 24° NE 17:07:44 24° ENE
CSL-04 Debris 4.3 17:01:46 10° SE 17:07:06 54° ENE 17:12:27 10° N
Cosmos 1656 4.1 17:02:40 10° S 17:07:49 40° ESE 17:11:00 21° NE
Cosmos 2219 3.6 17:03:19 10° NNW 17:08:54 66° WSW 17:14:27 10° SSE
CZ-2D R/B 4.1 17:09:21 29° ENE 17:09:21 29° ENE 17:12:40 10° N
Cosmos 1238 Rocket 4.1 17:07:43 10° NNW 17:12:21 48° W 17:16:09 10° SSW
Cosmos 1538 Rocket 4.0 17:10:18 10° S 17:15:30 66° ESE 17:20:14 13° NNE
Cosmos 2369 Rocket 4.4 17:12:34 10° W 17:16:25 19° NW 17:20:17 10° N
Meteor 2-20 4.4 17:11:16 10° S 17:17:23 85° E 17:23:35 10° N
Cosmos 1939 Rocket 3.5 17:17:44 35° ENE 17:18:00 35° ENE 17:21:47 10° N
Cosmos 1633 Rocket 3.1 17:15:47 10° N 17:20:07 52° ENE 17:24:25 10° SSE
Cosmos 1633 2.4 17:18:31 10° N 17:22:11 68° ENE 17:25:48 10° SSE
Gblst 52 Del rocket 4.5 17:17:49 10° WSW 17:24:53 88° N 17:28:06 31° ENE
COSMO-SKYMED 1 2.4 17:20:56 10° NNE 17:25:18 72° ESE 17:29:38 10° S
CSL-04 Rocket 3.5 17:22:10 10° SSE 17:27:32 76° ENE 17:32:51 10° NNW
COBE Rocket 4.3 17:22:57 10° N 17:27:47 64° WNW 17:32:27 10° SSW
FengYun 1-2 T 4.3 17:22:35 10° SSE 17:28:07 81° WSW 17:33:40 10° NNW
Cosmos 1666 Rocket 3.4 17:25:21 10° N 17:29:47 78° E 17:34:08 10° SSE
Cosmos 2344 4.0 17:22:59 10° WSW 17:30:25 61° NW 17:37:44 15° NE
Cosmos 1607 4.4 17:24:44 10° NW 17:30:52 64° WSW 17:37:02 10° SSE
Cosmos 2227 Rocket 2.4 17:25:45 10° NNW 17:31:25 71° WSW 17:37:02 10° SSE
Cosmos 1980 Rocket 3.9 17:27:35 10° SSE 17:28:59 15° SE 17:28:59 15° SE
Cosmos 2297 Rocket 2.6 17:26:15 10° NNW 17:31:53 66° WSW 17:37:28 10° SSE
Sich 1 3.3 17:31:48 10° NNW 17:36:07 69° W 17:40:26 10° S
YAOGAN 6 3.2 17:36:21 10° S 17:39:46 54° W 17:43:14 10° NNW
USA 215 3.2 17:37:20 30° ESE 17:40:50 78° NNE 17:47:24 10° WNW
Envisat 4.2 17:41:24 10° S 17:46:14 44° W 17:51:07 10° NNW
Cosmos 2369 3.8 17:42:10 10° S 17:47:37 51° ESE 17:48:30 47° E
USA 229 DEB 3.5 17:44:20 10° SW 17:50:56 84° SE 17:54:27 32° NE
USA 229 3.5 17:44:28 10° SW 17:51:03 84° SE 17:54:30 32° NE
Cosmos 1862 3.5 17:47:18 10° NNW 17:51:17 71° W 17:55:14 10° S
Cosmos 2034 Rocket 3.9 17:45:27 10° N 17:51:50 86° E 17:58:13 10° S
NOSS 3-1 (A) 3.3 17:50:40 10° SSW 17:56:08 59° SE 17:57:11 51° E
YAOGAN 1 3.1 17:52:26 10° S 17:56:42 58° W 18:01:00 10° NNW
IRS-1A Rocket 4.2 17:55:13 43° SE 17:56:55 63° ENE 18:02:35 10° N
Cosmos 1371 Rocket 3.9 17:52:06 10° NNW 17:57:18 62° ENE 17:57:28 61° ENE
Genesis I 4.1 17:53:40 10° WSW 17:57:33 45° NW 17:58:15 40° NNW
NOSS 3-1 (C) 3.2 17:51:57 10° SW 17:57:34 85° SE 17:59:56 41° NE
Cosmos 2082 3.9 17:52:07 10° NNW 17:57:44 70° WSW 18:02:34 14° SSE
Cosmos 2263 Rocket 3.1 17:53:17 10° NNW 17:57:18 31° NNE 17:57:18 31° NNE
Cosmos 2346 Rocket 4.3 17:53:33 10° S 17:59:44 67° E 18:05:53 10° NNE
Cosmos 1470 Rocket 3.9 17:55:59 10° N 17:59:34 54° NNE 17:59:34 54° NNE
Cosmos 2278 4.0 18:02:40 10° S 18:07:12 49° SSE 18:07:12 49° SSE
USA 116 4.4 18:09:07 31° N 18:11:11 64° WNW 18:16:00 10° SSW
Cosmos 1697 Rocket 2.5 18:06:25 10° SSW 18:12:02 72° ESE 18:12:06 72° ESE
Tsikada Rocket 3.9 18:07:51 10° S 18:14:11 74° E 18:20:35 10° NNE
Cosmos 1634 Rocket 4.0 18:08:58 10° N 18:14:34 58° NE 18:14:34 58° NE
Lacrosse 4 Rocket 3.0 18:13:45 10° SSW 18:15:36 26° SSW 18:15:36 26° SSW
ATLAS 5 CENTAUR R/B 3.8 18:13:06 10° NW 18:18:23 36° WSW 18:24:18 10° S
Cosmos 1680 Rocket 3.8 18:16:15 10° SSW 18:20:18 55° S 18:20:18 55° S
Cosmos 1816 Rocket 4.4 18:17:39 10° S 18:24:01 89° E 18:30:26 10° N
H-2A R/B 3.7 18:31:12 24° N 18:31:12 24° N 18:33:21 10° N
Ariane Rocket 3.2 18:28:22 62° SW 18:28:58 68° WSW 18:34:04 10° NNW
CZ-4 R/B 4.1 18:32:33 10° SW 18:35:33 19° W 18:38:31 10° NW
Cosmos 724 4.5 18:32:07 10° NW 18:37:55 63° WSW 18:38:19 62° SW
USA 238 DEB 4.4 18:35:01 10° NW 18:41:12 43° NNE 18:41:12 43° NNE
USA 238 4.4 18:35:08 10° NW 18:41:18 42° NNE 18:41:18 42° NNE
MOS 1 4.5 18:43:15 66° NW 18:43:15 66° NW 18:48:09 10° NNW
CENTAUR R/B 3.8 18:35:54 10° NW 18:42:34 34° NNE 18:42:52 34° NNE
Cosmos 2056 Rocket 4.4 18:44:27 10° NNW 18:48:06 44° NW 18:48:06 44° NW
NOSS 3-2 (A) 4.5 18:42:57 10° NW 18:49:04 44° NNE 18:49:04 44° NNE
ATLAS 3B R/B 3.9 18:52:32 10° NW 18:57:16 28° N 18:57:16 28° N
Cosmos 1980 Rocket 4.3 19:09:33 10° SW 19:10:50 17° SW 19:10:50 17° SW
USA 215 4.1 19:24:41 42° WSW 19:24:41 42° WSW 19:30:23 10° WNW
Cosmos 2263 Rocket 4.3 19:37:05 10° NW 19:39:00 22° NW 19:39:00 22° NW
